Tracking 18852 objects as of 24-Nov-2017
HD Live streaming from Space Station
objects crossing your sky now

FENGYUN 1C DEB

Track FENGYUN 1C DEB now!
10-day predictions


NORAD ID: 36726
Int'l Code: 1999-025EAY
Perigee: 510.6 km
Apogee: 605.2 km
Inclination: 99.0 °
Period: 95.7 minutes
Semi major axis: 6928 km
RCS: 0.0079 m2 (small)
Launch date: May 10, 1999
Source: People's Republic of China (PRC)
Launch site: Taiyaun Space Center, China (TSC)

Note: This is SATELLITE DEBRIS
aabbcc
Your satellite tracking list
Your tracking list is empty




NASA's NSSDC Master Catalog

Two Line Element Set (TLE):
1 36726U 99025EAY 17324.28542073  .00009410  00000-0  63061-3 0  9990
2 36726  98.9905 349.0364 0068222  50.0824 310.6367 15.05243140478262
Source of the keplerian elements: AFSPC